Location: Piedmont
(45.8748°N, 74.1254°W)
Time: 13:22:53
(UTC+00:00)

N. Korean satellite - Pass Details

Date: 10 December 2021
Orbit: 446 x 491 km, 97.3° (Epoch: 18 January)

Event Time Altitude Azimuth Distance (km) Brightness Sun altitude
Rises 09:43:45 0° 21° (NNE) 2,460 10.3 -27.4°
Reaches altitude 10° 09:45:56 10° 32° (NNE) 1,582 9.4 -27.1°
Enters shadow 09:46:02 11° 33° (NNE) 1,545 9.4 -27.0°
Exits shadow 09:48:58 32° 95° (E) 802 8.2 -26.5°
Maximum altitude 09:49:01 32° 97° (E) 802 8.2 -26.5°
Drops below altitude 10° 09:52:04 10° 162° (SSE) 1,575 9.4 -26.0°
Sets 09:54:14 0° 173° (S) 2,447 10.3 -25.6°
